﻿測定場所 (Monitoring sites),日付 (Measurement date),時間 (Measurement time),線量率 最大値 (max) μGy/h,線量率 最小値 (min) μGy/h,線量率 平均値 (average) μGy/h,
江戸川 (Edogawa),2012-11-18,23:01～24:00,0.106,0.0932,0.0986,
江戸川 (Edogawa),2012-11-18,22:01～23:00,0.104,0.0925,0.0990,
江戸川 (Edogawa),2012-11-18,21:01～22:00,0.103,0.0908,0.0980,
江戸川 (Edogawa),2012-11-18,20:01～21:00,0.105,0.0929,0.0990,
江戸川 (Edogawa),2012-11-18,19:01～20:00,0.105,0.0940,0.0994,
江戸川 (Edogawa),2012-11-18,18:01～19:00,0.106,0.0938,0.0996,
江戸川 (Edogawa),2012-11-18,17:01～18:00,0.106,0.0926,0.0991,
江戸川 (Edogawa),2012-11-18,16:01～17:00,0.106,0.0927,0.0987,
江戸川 (Edogawa),2012-11-18,15:01～16:00,0.104,0.0948,0.0992,
江戸川 (Edogawa),2012-11-18,14:01～15:00,0.107,0.0931,0.0993,
江戸川 (Edogawa),2012-11-18,13:01～14:00,0.104,0.0928,0.0989,
江戸川 (Edogawa),2012-11-18,12:01～13:00,0.105,0.0948,0.0990,
江戸川 (Edogawa),2012-11-18,11:01～12:00,0.106,0.0909,0.0987,
江戸川 (Edogawa),2012-11-18,10:01～11:00,0.103,0.0927,0.0981,
江戸川 (Edogawa),2012-11-18,09:01～10:00,0.105,0.0936,0.0987,
江戸川 (Edogawa),2012-11-18,08:01～09:00,0.104,0.0920,0.0982,
江戸川 (Edogawa),2012-11-18,07:01～08:00,0.103,0.0916,0.0977,
江戸川 (Edogawa),2012-11-18,06:01～07:00,0.104,0.0909,0.0976,
江戸川 (Edogawa),2012-11-18,05:01～06:00,0.103,0.0920,0.0974,
江戸川 (Edogawa),2012-11-18,04:01～05:00,0.103,0.0921,0.0974,
江戸川 (Edogawa),2012-11-18,03:01～04:00,0.104,0.0925,0.0976,
江戸川 (Edogawa),2012-11-18,02:01～03:00,0.103,0.0925,0.0980,
江戸川 (Edogawa),2012-11-18,01:01～02:00,0.103,0.0921,0.0977,
江戸川 (Edogawa),2012-11-18,00:01～01:00,0.106,0.0930,0.0981,
江戸川 (Edogawa),2012-11-17,23:01～24:00,0.102,0.0908,0.0978,
江戸川 (Edogawa),2012-11-17,22:01～23:00,0.106,0.0922,0.100,
江戸川 (Edogawa),2012-11-17,21:01～22:00,0.114,0.0952,0.105,
江戸川 (Edogawa),2012-11-17,20:01～21:00,0.115,0.101,0.108,
江戸川 (Edogawa),2012-11-17,19:01～20:00,0.127,0.103,0.118,
江戸川 (Edogawa),2012-11-17,18:01～19:00,0.125,0.100,0.110,
江戸川 (Edogawa),2012-11-17,17:01～18:00,0.113,0.101,0.106,
江戸川 (Edogawa),2012-11-17,16:01～17:00,0.112,0.0980,0.105,
江戸川 (Edogawa),2012-11-17,15:01～16:00,0.112,0.0999,0.105,
江戸川 (Edogawa),2012-11-17,14:01～15:00,0.109,0.0994,0.104,
江戸川 (Edogawa),2012-11-17,13:01～14:00,0.107,0.0971,0.101,
江戸川 (Edogawa),2012-11-17,12:01～13:00,0.111,0.0964,0.104,
江戸川 (Edogawa),2012-11-17,11:01～12:00,0.112,0.100,0.105,
江戸川 (Edogawa),2012-11-17,10:01～11:00,0.109,0.0974,0.104,
江戸川 (Edogawa),2012-11-17,09:01～10:00,0.107,0.0972,0.102,
江戸川 (Edogawa),2012-11-17,08:01～09:00,0.108,0.0945,0.101,
江戸川 (Edogawa),2012-11-17,07:01～08:00,0.106,0.0957,0.101,
江戸川 (Edogawa),2012-11-17,06:01～07:00,0.106,0.0965,0.101,
江戸川 (Edogawa),2012-11-17,05:01～06:00,0.106,0.0956,0.101,
江戸川 (Edogawa),2012-11-17,04:01～05:00,0.104,0.0943,0.100,
江戸川 (Edogawa),2012-11-17,03:01～04:00,0.108,0.0944,0.101,
江戸川 (Edogawa),2012-11-17,02:01～03:00,0.106,0.0962,0.101,
江戸川 (Edogawa),2012-11-17,01:01～02:00,0.107,0.0923,0.100,
江戸川 (Edogawa),2012-11-17,00:01～01:00,0.108,0.0943,0.100,
江戸川 (Edogawa),2012-11-16,23:01～24:00,0.107,0.0906,0.100,
江戸川 (Edogawa),2012-11-16,22:01～23:00,0.106,0.0922,0.100,
江戸川 (Edogawa),2012-11-16,21:01～22:00,0.105,0.0936,0.0996,
江戸川 (Edogawa),2012-11-16,20:01～21:00,0.105,0.0923,0.0993,
江戸川 (Edogawa),2012-11-16,19:01～20:00,0.106,0.0948,0.0999,
江戸川 (Edogawa),2012-11-16,18:01～19:00,0.107,0.0916,0.0994,
江戸川 (Edogawa),2012-11-16,17:01～18:00,0.105,0.0932,0.0993,
江戸川 (Edogawa),2012-11-16,16:01～17:00,0.105,0.0931,0.100,
江戸川 (Edogawa),2012-11-16,15:01～16:00,0.106,0.0955,0.100,
江戸川 (Edogawa),2012-11-16,14:01～15:00,0.106,0.0952,0.101,
江戸川 (Edogawa),2012-11-16,13:01～14:00,0.107,0.0955,0.100,
江戸川 (Edogawa),2012-11-16,12:01～13:00,0.106,0.0950,0.101,
江戸川 (Edogawa),2012-11-16,11:01～12:00,0.107,0.0953,0.100,
江戸川 (Edogawa),2012-11-16,10:01～11:00,0.106,0.0954,0.100,
江戸川 (Edogawa),2012-11-16,09:01～10:00,0.109,0.0941,0.100,
江戸川 (Edogawa),2012-11-16,08:01～09:00,0.106,0.0938,0.0993,
江戸川 (Edogawa),2012-11-16,07:01～08:00,0.104,0.0919,0.0993,
江戸川 (Edogawa),2012-11-16,06:01～07:00,0.105,0.0929,0.0993,
江戸川 (Edogawa),2012-11-16,05:01～06:00,0.105,0.0947,0.0996,
江戸川 (Edogawa),2012-11-16,04:01～05:00,0.104,0.0933,0.0993,
江戸川 (Edogawa),2012-11-16,03:01～04:00,0.106,0.0930,0.0990,
江戸川 (Edogawa),2012-11-16,02:01～03:00,0.105,0.0932,0.100,
江戸川 (Edogawa),2012-11-16,01:01～02:00,0.104,0.0949,0.0991,
江戸川 (Edogawa),2012-11-16,00:01～01:00,0.105,0.0921,0.0989,
江戸川 (Edogawa),2012-11-15,23:01～24:00,0.104,0.0925,0.0994,
江戸川 (Edogawa),2012-11-15,22:01～23:00,0.105,0.0946,0.0998,
江戸川 (Edogawa),2012-11-15,21:01～22:00,0.106,0.0950,0.100,
江戸川 (Edogawa),2012-11-15,20:01～21:00,0.107,0.0939,0.100,
江戸川 (Edogawa),2012-11-15,19:01～20:00,0.105,0.0936,0.100,
江戸川 (Edogawa),2012-11-15,18:01～19:00,0.105,0.0951,0.100,
江戸川 (Edogawa),2012-11-15,17:01～18:00,0.108,0.0927,0.101,
江戸川 (Edogawa),2012-11-15,16:01～17:00,0.106,0.0954,0.100,
江戸川 (Edogawa),2012-11-15,15:01～16:00,0.108,0.0946,0.101,
江戸川 (Edogawa),2012-11-15,14:01～15:00,0.106,0.0962,0.102,
江戸川 (Edogawa),2012-11-15,13:01～14:00,0.107,0.0943,0.101,
江戸川 (Edogawa),2012-11-15,12:01～13:00,0.109,0.0968,0.102,
江戸川 (Edogawa),2012-11-15,11:01～12:00,0.106,0.0955,0.101,
江戸川 (Edogawa),2012-11-15,10:01～11:00,0.109,0.0960,0.102,
江戸川 (Edogawa),2012-11-15,09:01～10:00,0.108,0.0961,0.101,
江戸川 (Edogawa),2012-11-15,08:01～09:00,0.104,0.0946,0.0999,
江戸川 (Edogawa),2012-11-15,07:01～08:00,0.107,0.0934,0.100,
江戸川 (Edogawa),2012-11-15,06:01～07:00,0.105,0.0934,0.100,
江戸川 (Edogawa),2012-11-15,05:01～06:00,0.105,0.0949,0.100,
江戸川 (Edogawa),2012-11-15,04:01～05:00,0.106,0.0951,0.100,
江戸川 (Edogawa),2012-11-15,03:01～04:00,0.106,0.0955,0.0994,
江戸川 (Edogawa),2012-11-15,02:01～03:00,0.106,0.0931,0.0992,
江戸川 (Edogawa),2012-11-15,01:01～02:00,0.109,0.0942,0.0997,
江戸川 (Edogawa),2012-11-15,00:01～01:00,0.105,0.0944,0.0998,
江戸川 (Edogawa),2012-11-14,23:01～24:00,0.107,0.0946,0.0998,
江戸川 (Edogawa),2012-11-14,22:01～23:00,0.105,0.0953,0.0997,
江戸川 (Edogawa),2012-11-14,21:01～22:00,0.105,0.0922,0.0997,
江戸川 (Edogawa),2012-11-14,20:01～21:00,0.105,0.0949,0.0994,
江戸川 (Edogawa),2012-11-14,19:01～20:00,0.103,0.0910,0.0999,
江戸川 (Edogawa),2012-11-14,18:01～19:00,0.106,0.0939,0.0995,
江戸川 (Edogawa),2012-11-14,17:01～18:00,0.107,0.0946,0.100,
江戸川 (Edogawa),2012-11-14,16:01～17:00,0.106,0.0952,0.101,
江戸川 (Edogawa),2012-11-14,15:01～16:00,0.109,0.0981,0.103,
江戸川 (Edogawa),2012-11-14,14:01～15:00,0.106,0.0941,0.100,
江戸川 (Edogawa),2012-11-14,13:01～14:00,0.107,0.0941,0.100,
江戸川 (Edogawa),2012-11-14,12:01～13:00,0.108,0.0947,0.101,
江戸川 (Edogawa),2012-11-14,11:01～12:00,0.107,0.0962,0.101,
江戸川 (Edogawa),2012-11-14,10:01～11:00,0.106,0.0939,0.100,
江戸川 (Edogawa),2012-11-14,09:01～10:00,0.107,0.0948,0.100,
江戸川 (Edogawa),2012-11-14,08:01～09:00,0.105,0.0916,0.0998,
江戸川 (Edogawa),2012-11-14,07:01～08:00,0.106,0.0933,0.0993,
江戸川 (Edogawa),2012-11-14,06:01～07:00,0.105,0.0944,0.0985,
江戸川 (Edogawa),2012-11-14,05:01～06:00,0.108,0.0930,0.0988,
江戸川 (Edogawa),2012-11-14,04:01～05:00,0.106,0.0920,0.0991,
江戸川 (Edogawa),2012-11-14,03:01～04:00,0.105,0.0937,0.0994,
江戸川 (Edogawa),2012-11-14,02:01～03:00,0.107,0.0950,0.0994,
江戸川 (Edogawa),2012-11-14,01:01～02:00,0.104,0.0947,0.0998,
江戸川 (Edogawa),2012-11-14,00:01～01:00,0.105,0.0931,0.0986,
江戸川 (Edogawa),2012-11-13,23:01～24:00,0.105,0.0924,0.0988,
江戸川 (Edogawa),2012-11-13,22:01～23:00,0.104,0.0935,0.0989,
江戸川 (Edogawa),2012-11-13,21:01～22:00,0.106,0.0931,0.0986,
江戸川 (Edogawa),2012-11-13,20:01～21:00,0.106,0.0926,0.0988,
江戸川 (Edogawa),2012-11-13,19:01～20:00,0.105,0.0945,0.0990,
江戸川 (Edogawa),2012-11-13,18:01～19:00,0.105,0.0922,0.100,
江戸川 (Edogawa),2012-11-13,17:01～18:00,0.105,0.0943,0.0996,
江戸川 (Edogawa),2012-11-13,16:01～17:00,0.107,0.0945,0.0992,
江戸川 (Edogawa),2012-11-13,15:01～16:00,0.106,0.0898,0.100,
江戸川 (Edogawa),2012-11-13,14:01～15:00,0.108,0.0928,0.0995,
江戸川 (Edogawa),2012-11-13,13:01～14:00,0.106,0.0928,0.0998,
江戸川 (Edogawa),2012-11-13,12:01～13:00,0.104,0.0929,0.0997,
江戸川 (Edogawa),2012-11-13,11:01～12:00,0.109,0.0944,0.101,
江戸川 (Edogawa),2012-11-13,10:01～11:00,0.107,0.0932,0.100,
江戸川 (Edogawa),2012-11-13,09:01～10:00,0.107,0.0915,0.0991,
江戸川 (Edogawa),2012-11-13,08:01～09:00,0.104,0.0912,0.0991,
江戸川 (Edogawa),2012-11-13,07:01～08:00,0.106,0.0940,0.0992,
江戸川 (Edogawa),2012-11-13,06:01～07:00,0.106,0.0937,0.0989,
江戸川 (Edogawa),2012-11-13,05:01～06:00,0.104,0.0954,0.0995,
江戸川 (Edogawa),2012-11-13,04:01～05:00,0.105,0.0941,0.0989,
江戸川 (Edogawa),2012-11-13,03:01～04:00,0.105,0.0955,0.0992,
江戸川 (Edogawa),2012-11-13,02:01～03:00,0.107,0.0938,0.0990,
江戸川 (Edogawa),2012-11-13,01:01～02:00,0.104,0.0940,0.0987,
江戸川 (Edogawa),2012-11-13,00:01～01:00,0.103,0.0928,0.0980,
江戸川 (Edogawa),2012-11-12,23:01～24:00,0.103,0.0919,0.0983,
江戸川 (Edogawa),2012-11-12,22:01～23:00,0.105,0.0927,0.0979,
江戸川 (Edogawa),2012-11-12,21:01～22:00,0.105,0.0922,0.0982,
江戸川 (Edogawa),2012-11-12,20:01～21:00,0.106,0.0941,0.0987,
江戸川 (Edogawa),2012-11-12,19:01～20:00,0.103,0.0945,0.0986,
江戸川 (Edogawa),2012-11-12,18:01～19:00,0.105,0.0896,0.0990,
江戸川 (Edogawa),2012-11-12,17:01～18:00,0.103,0.0925,0.0987,
江戸川 (Edogawa),2012-11-12,16:01～17:00,0.103,0.0939,0.0989,
江戸川 (Edogawa),2012-11-12,15:01～16:00,0.104,0.0931,0.0989,
江戸川 (Edogawa),2012-11-12,14:01～15:00,0.105,0.0909,0.0992,
江戸川 (Edogawa),2012-11-12,13:01～14:00,0.105,0.0923,0.0992,
江戸川 (Edogawa),2012-11-12,12:01～13:00,0.105,0.0917,0.0990,
江戸川 (Edogawa),2012-11-12,11:01～12:00,0.106,0.0951,0.0995,
江戸川 (Edogawa),2012-11-12,10:01～11:00,0.106,0.0939,0.0988,
江戸川 (Edogawa),2012-11-12,09:01～10:00,0.104,0.0907,0.0988,
江戸川 (Edogawa),2012-11-12,08:01～09:00,0.105,0.0928,0.0993,
江戸川 (Edogawa),2012-11-12,07:01～08:00,0.104,0.0926,0.0985,
江戸川 (Edogawa),2012-11-12,06:01～07:00,0.103,0.0919,0.0986,
江戸川 (Edogawa),2012-11-12,05:01～06:00,0.103,0.0934,0.0986,
江戸川 (Edogawa),2012-11-12,04:01～05:00,0.105,0.0924,0.0982,
江戸川 (Edogawa),2012-11-12,03:01～04:00,0.105,0.0917,0.0983,
江戸川 (Edogawa),2012-11-12,02:01～03:00,0.106,0.0955,0.100,
江戸川 (Edogawa),2012-11-12,01:01～02:00,0.108,0.0968,0.102,
江戸川 (Edogawa),2012-11-12,00:01～01:00,0.109,0.0977,0.103,
